Date String (YYYY-MM-DD hh:mm:ss) UTC,Instrument flags,Ambient pressure (hPa),Sample flow (lpm),Bypass flow (lpm),Sample temperature (°C),Ambient temperature (°C),ASC tube jacket temperature (°C),LED temperature (°C),Box temperature (°C),Sample RH (%),Span deviation,Mass concentration (μg/m³),Mass concentration (μg/m³),Mass concentration (μg/m³)
DateTimeUTC,F1_M11,P_M11,Q1_M11,Q2_M11,T1_M11,T2_M11,T3_M11,T4_M11,T5_M11,U1_M11,ZSPAN_M11,X0_M11,X2_M11,X1_M11
2022-08-28 01:00:00,,0822.4,5.00,0.00,29.3,27.8,00.0,37.9,31.2,18.4,0000.0,0007.70,0003.24,0002.42
2022-08-28 01:01:00,,0822.4,5.01,0.00,29.3,28.0,00.0,38.0,31.2,18.6,0000.0,0007.74,0003.22,0002.42
2022-08-28 01:02:00,,0822.4,5.00,0.00,29.4,28.2,00.0,38.0,31.3,18.6,0000.0,0007.44,0003.20,0002.41
2022-08-28 01:03:00,,0822.4,5.00,0.00,29.4,28.3,00.0,38.0,31.3,18.6,0000.0,0007.06,0003.16,0002.41
2022-08-28 01:04:00,,0822.4,5.00,0.00,29.4,28.5,00.0,38.0,31.4,18.6,0000.0,0007.47,0003.14,0002.42
2022-08-28 01:05:00,,0822.4,5.00,0.00,29.5,28.5,00.0,38.1,31.5,18.6,0000.0,0007.77,0003.16,0002.45
2022-08-28 01:06:00,,0822.4,5.01,0.00,29.5,27.5,00.0,38.1,31.4,18.7,0000.0,0008.40,0003.16,0002.47
2022-08-28 01:07:00,,0822.4,5.00,0.00,29.5,26.8,00.0,38.0,31.3,18.8,0000.0,0008.40,0003.15,0002.48
2022-08-28 01:08:00,,0822.4,5.00,0.00,29.5,26.9,00.0,38.0,31.3,18.9,0000.0,0008.37,0003.17,0002.48
2022-08-28 01:09:00,,0822.4,5.01,0.00,29.4,27.2,00.0,38.0,31.2,18.9,0000.0,0008.18,0003.16,0002.49
2022-08-28 01:10:00,,0822.4,4.98,0.00,29.4,27.5,00.0,38.0,31.3,18.9,0000.0,0007.83,0003.15,0002.50
2022-08-28 01:11:00,,0822.4,5.01,0.00,29.4,27.8,00.0,38.0,31.3,18.6,0000.0,0007.95,0003.17,0002.50
2022-08-28 01:12:00,,0822.5,4.99,0.00,29.4,28.0,00.0,38.1,31.4,17.8,0000.0,0008.06,0003.15,0002.50
2022-08-28 01:13:00,,0822.5,5.01,0.00,29.5,28.2,00.0,38.1,31.4,18.6,0000.0,0008.57,0003.14,0002.50
2022-08-28 01:14:00,,0822.5,4.99,0.00,29.5,28.3,00.0,38.1,31.4,18.7,0000.0,0008.98,0003.18,0002.53
2022-08-28 01:15:00,,0822.4,5.00,0.00,29.5,28.5,00.0,38.1,31.5,18.6,0000.0,0009.47,0003.23,0002.54
2022-08-28 01:16:00,,0822.4,4.99,0.00,29.6,27.6,00.0,38.1,31.4,18.5,0000.0,0009.18,0003.23,0002.53
2022-08-28 01:17:00,,0822.4,5.02,0.00,29.5,26.4,00.0,38.1,31.3,17.9,0000.0,0008.77,0003.21,0002.52
2022-08-28 01:18:00,,0822.5,5.00,0.00,29.4,26.1,00.0,38.0,31.2,18.2,0000.0,0008.65,0003.23,0002.53
2022-08-28 01:19:00,,0822.4,5.01,0.00,29.4,26.4,00.0,38.0,31.0,18.0,0000.0,0008.78,0003.26,0002.55
2022-08-28 01:20:00,,0822.4,4.99,0.00,29.3,26.7,00.0,38.0,31.0,17.9,0000.0,0008.72,0003.25,0002.55
2022-08-28 01:21:00,,0822.5,5.00,0.00,29.3,27.1,00.0,38.0,31.1,18.1,0000.0,0008.60,0003.24,0002.56
2022-08-28 01:22:00,,0822.4,4.99,0.00,29.3,27.4,00.0,38.0,31.1,17.9,0000.0,0008.57,0003.23,0002.57
2022-08-28 01:23:00,,0822.4,4.98,0.00,29.3,27.6,00.0,38.0,31.2,18.2,0000.0,0008.32,0003.25,0002.57
2022-08-28 01:24:00,,0822.4,5.01,0.00,29.3,27.8,00.0,38.0,31.2,17.3,0000.0,0007.84,0003.27,0002.59
2022-08-28 01:25:00,,0822.4,5.00,0.00,29.3,28.0,00.0,38.0,31.3,16.7,0000.0,0007.39,0003.24,0002.58
2022-08-28 01:26:00,,0822.4,5.00,0.00,29.4,28.2,00.0,38.0,31.3,16.4,0000.0,0006.26,0003.22,0002.57
2022-08-28 01:27:00,,0822.4,5.00,0.00,29.4,28.4,00.0,38.1,31.4,16.4,0000.0,0006.00,0003.21,0002.58
2022-08-28 01:28:00,,0822.4,5.01,0.00,29.5,28.5,00.0,38.1,31.4,16.4,0000.0,0005.93,0003.19,0002.57
2022-08-28 01:29:00,,0822.4,4.99,0.00,29.5,28.5,00.0,38.1,31.5,16.3,0000.0,0005.75,0003.18,0002.56
2022-08-28 01:30:00,,0822.4,5.00,0.00,29.5,27.5,00.0,38.1,31.4,16.1,0000.0,0005.76,0003.18,0002.55
2022-08-28 01:31:00,,0822.4,5.00,0.00,29.4,26.2,00.0,38.1,31.2,16.2,0000.0,0006.04,0003.23,0002.57
2022-08-28 01:32:00,,0822.4,5.00,0.00,29.4,26.1,00.0,38.0,31.2,16.4,0000.0,0006.08,0003.24,0002.56
2022-08-28 01:33:00,,0822.4,4.99,0.00,29.3,26.4,00.0,38.0,31.0,16.5,0000.0,0006.06,0003.23,0002.55
2022-08-28 01:34:00,,0822.4,5.00,0.00,29.2,26.7,00.0,38.0,30.9,16.6,0000.0,0005.43,0003.20,0002.56
2022-08-28 01:35:00,,0822.4,4.99,0.00,29.2,27.1,00.0,37.9,31.0,16.8,0000.0,0005.33,0003.18,0002.54
2022-08-28 01:36:00,,0822.4,5.01,0.00,29.2,27.4,00.0,37.9,31.1,17.4,0000.0,0005.40,0003.19,0002.54
2022-08-28 01:37:00,,0822.4,5.00,0.00,29.3,27.6,00.0,37.9,31.1,17.7,0000.0,0005.30,0003.19,0002.53
2022-08-28 01:38:00,,0822.4,4.99,0.00,29.3,27.9,00.0,38.0,31.2,18.0,0000.0,0005.30,0003.18,0002.52
2022-08-28 01:39:00,,0822.5,5.00,0.00,29.3,28.0,00.0,38.0,31.2,18.2,0000.0,0005.51,0003.21,0002.52
2022-08-28 01:40:00,,0822.5,5.00,0.00,29.3,28.2,00.0,38.0,31.3,17.2,0000.0,0005.78,0003.24,0002.53
2022-08-28 01:41:00,,0822.4,5.00,0.00,29.4,28.3,00.0,38.0,31.3,17.1,0000.0,0005.57,0003.22,0002.53
2022-08-28 01:42:00,,0822.4,5.00,0.00,29.4,28.4,00.0,38.0,31.4,16.9,0000.0,0005.40,0003.19,0002.53
2022-08-28 01:43:00,,0822.4,5.00,0.00,29.5,28.6,00.0,38.1,31.5,17.0,0000.0,0005.37,0003.18,0002.54
2022-08-28 01:44:00,,0822.4,5.01,0.00,29.5,28.5,00.0,38.1,31.5,17.0,0000.0,0005.49,0003.19,0002.54
2022-08-28 01:45:00,,0822.4,4.98,0.00,29.5,27.4,00.0,38.1,31.4,17.0,0000.0,0005.54,0003.21,0002.54
2022-08-28 01:46:00,,0822.3,5.01,0.00,29.4,26.1,00.0,38.1,31.1,17.2,0000.0,0006.13,0003.25,0002.55
2022-08-28 01:47:00,,0822.3,4.98,0.00,29.4,26.1,00.0,38.0,31.1,17.3,0000.0,0006.30,0003.25,0002.56
2022-08-28 01:48:00,,0822.2,5.01,0.00,29.3,26.3,00.0,38.0,31.0,17.5,0000.0,0006.37,0003.26,0002.58
2022-08-28 01:49:00,,0822.2,5.00,0.00,29.2,26.7,00.0,37.9,30.9,17.5,0000.0,0006.33,0003.25,0002.60
2022-08-28 01:50:00,,0822.2,5.00,0.00,29.2,27.0,00.0,37.9,31.0,17.5,0000.0,0006.23,0003.25,0002.61
2022-08-28 01:51:00,,0822.1,4.99,0.00,29.2,27.3,00.0,37.9,31.1,17.6,0000.0,0005.83,0003.24,0002.62
2022-08-28 01:52:00,,0822.1,5.02,0.00,29.2,27.6,00.0,38.0,31.1,17.5,0000.0,0005.84,0003.25,0002.64
2022-08-28 01:53:00,,0822.1,5.00,0.00,29.3,27.8,00.0,38.0,31.2,17.5,0000.0,0005.89,0003.25,0002.64
2022-08-28 01:54:00,,0822.1,5.01,0.00,29.3,28.0,00.0,38.0,31.2,17.6,0000.0,0005.88,0003.25,0002.64
2022-08-28 01:55:00,,0822.1,4.99,0.00,29.3,28.1,00.0,38.0,31.3,17.5,0000.0,0005.81,0003.25,0002.64
2022-08-28 01:56:00,,0822.1,5.00,0.00,29.4,28.3,00.0,38.0,31.3,17.5,0000.0,0005.86,0003.26,0002.66
2022-08-28 01:57:00,,0822.1,5.00,0.00,29.4,28.4,00.0,38.0,31.3,17.5,0000.0,0006.14,0003.25,0002.67
2022-08-28 01:58:00,,0822.1,5.00,0.00,29.4,28.5,00.0,38.1,31.4,17.5,0000.0,0005.75,0003.22,0002.68
2022-08-28 01:59:00,,0822.1,5.01,0.00,29.5,28.5,00.0,38.1,31.4,17.4,0000.0,0005.65,0003.21,0002.68
